QPF
0.00 0.00 0.00 0.00 0.00 0.00 0.00 0.00 0.00 0.00 0.00 0.00 0.00 0.00 0.00 0.00 0.01 0.00 0.00 0.00 0.00 0.00 0.00 0.00 0.00 0.00 0.00 0.00 0.00 0.00 0.00 0.00 0.00 0.01 0.00 0.00 0.00 0.00 0.00 0.00 0.02 0.04 0.12 0.21 0.09 0.00 0.00 0.00 0.00
0.00 0.00 0.00 0.00 0.00 0.00 0.00 0.00 0.00 0.00 0.00 0.00 0.00 0.00 0.00 0.01 0.00 0.00 0.00 0.00 0.00 0.00 0.00 0.00 0.00 0.00 0.00 0.00 0.00 0.00 0.00 0.00 0.00 0.00 0.00 0.00 0.00 0.01 0.01 0.01 0.03 0.07 0.15 0.08 0.05 0.08 0.04 0.00 0.00
0.00 0.00 0.00 0.00 0.00 0.00 0.00 0.00 0.00 0.00 0.00 0.00 0.00 0.00 0.00 0.00 0.00 0.00 0.00 0.00 0.00 0.00 0.00 0.01 0.00 0.00 0.00 0.00 0.00 0.00 0.00 0.00 0.00 0.00 0.00 0.00 0.00 0.01 0.03 0.03 0.00 0.02 0.03 0.13 0.08 0.10 0.13 0.04 0.01
0.00 0.00 0.00 0.00 0.00 0.00 0.00 0.00 0.00 0.00 0.00 0.00 0.00 0.00 0.00 0.00 0.00 0.00 0.00 0.00 0.00 0.00 0.00 0.00 0.00 0.00 0.00 0.00 0.00 0.00 0.00 0.00 0.00 0.00 0.00 0.00 0.00 0.04 0.02 0.03 0.01 0.04 0.06 0.12 0.08 0.01 0.03 0.11 0.06
0.00 0.00 0.00 0.00 0.00 0.00 0.00 0.00 0.00 0.00 0.00 0.00 0.00 0.00 0.00 0.00 0.00 0.00 0.00 0.00 0.00 0.00 0.00 0.00 0.01 0.00 0.00 0.00 0.00 0.00 0.00 0.00 0.00 0.00 0.00 0.00 0.00 0.01 0.00 0.00 0.00 0.00 0.01 0.04 0.02 0.01 0.07 0.11 0.00
0.00 0.00 0.00 0.00 0.00 0.00 0.00 0.00 0.00 0.00 0.00 0.00 0.00 0.00 0.00 0.00 0.00 0.00 0.00 0.00 0.00 0.00 0.00 0.00 0.01 0.00 0.00 0.00 0.00 0.00 0.00 0.00 0.00 0.00 0.00 0.00 0.00 0.00 0.00 0.00 0.00 0.00 0.01 0.01 0.01 0.02 0.06 0.19 0.01
0.00 0.00 0.00 0.00 0.00 0.00 0.00 0.00 0.00 0.00 0.00 0.00 0.00 0.00 0.00 0.00 0.00 0.00 0.00 0.00 0.00 0.00 0.00 0.00 0.00 0.00 0.00 0.00 0.00 0.00 0.00 0.00 0.00 0.01 0.00 0.00 0.01 0.01 0.00 0.00 0.00 0.01 0.06 0.08 0.00 0.01 0.01 0.11 0.03
0.00 0.00 0.00 0.00 0.00 0.00 0.00 0.00 0.00 0.00 0.00 0.00 0.00 0.00 0.00 0.00 0.00 0.00 0.00 0.00 0.00 0.00 0.00 0.00 0.00 0.00 0.00 0.00 0.00 0.00 0.00 0.00 0.00 0.01 0.00 0.00 0.00 0.00 0.00 0.00 0.00 0.00 0.01 0.06 0.00 0.00 0.00 0.01 0.05
0.00 0.00 0.00 0.00 0.00 0.00 0.00 0.00 0.00 0.00 0.00 0.00 0.00 0.00 0.00 0.00 0.00 0.00 0.00 0.00 0.00 0.00 0.00 0.00 0.00 0.00 0.00 0.00 0.00 0.00 0.00 0.00 0.00 0.00 0.00 0.00 0.00 0.00 0.00 0.00 0.00 0.00 0.00 0.00 0.00 0.00 0.00 0.00 0.04
0.00 0.00 0.00 0.00 0.00 0.00 0.00 0.00 0.00 0.00 0.00 0.00 0.00 0.00 0.00 0.00 0.00 0.00 0.00 0.00 0.00 0.00 0.00 0.00 0.00 0.00 0.00 0.00 0.00 0.00 0.00 0.00 0.00 0.00 0.00 0.00 0.00 0.00 0.00 0.00 0.00 0.00 0.00 0.00 0.00 0.00 0.00 0.00 0.00
0.00 0.00 0.00 0.00 0.00 0.00 0.00 0.00 0.00 0.00 0.00 0.00 0.00 0.00 0.00 0.00 0.00 0.00 0.00 0.00 0.00 0.00 0.00 0.00 0.00 0.00 0.00 0.00 0.00 0.00 0.00 0.00 0.00 0.00 0.00 0.00 0.00 0.00 0.07 0.10 0.13 0.07 0.05 0.04 0.00 0.00 0.00 0.00 0.00
0.00 0.00 0.00 0.00 0.00 0.00 0.00 0.00 0.00 0.00 0.00 0.00 0.00 0.00 0.00 0.00 0.00 0.00 0.00 0.00 0.00 0.00 0.00 0.00 0.00 0.01 0.00 0.00 0.01 0.03 0.00 0.00 0.00 0.00 0.00 0.00 0.00 0.00 0.01 0.09 0.07 0.11 0.12 0.16 0.06 0.01 0.00 0.00 0.00
0.00 0.00 0.00 0.00 0.00 0.00 0.00 0.00 0.00 0.00 0.00 0.00 0.00 0.00 0.00 0.00 0.00 0.00 0.00 0.00 0.00 0.01 0.01 0.00 0.01 0.05 0.00 0.00 0.08 0.08 0.03 0.04 0.02 0.00 0.00 0.00 0.00 0.00 0.00 0.00 0.03 0.15 0.07 0.15 0.17 0.09 0.05 0.05 0.04
0.00 0.00 0.00 0.00 0.00 0.00 0.00 0.00 0.00 0.00 0.00 0.00 0.00 0.00 0.00 0.00 0.00 0.00 0.00 0.00 0.00 0.03 0.02 0.05 0.04 0.10 0.02 0.12 0.15 0.11 0.17 0.16 0.14 0.08 0.05 0.00 0.00 0.05 0.04 0.09 0.11 0.16 0.08 0.04 0.08 0.12 0.11 0.11 0.07
0.00 0.00 0.00 0.00 0.00 0.00 0.00 0.00 0.00 0.00 0.00 0.00 0.00 0.00 0.00 0.00 0.00 0.00 0.00 0.00 0.00 0.04 0.03 0.16 0.04 0.01 0.01 0.08 0.10 0.13 0.11 0.12 0.24 0.27 0.19 0.12 0.04 0.06 0.05 0.03 0.04 0.08 0.01 0.00 0.00 0.00 0.03 0.02 0.01
0.00 0.00 0.00 0.00 0.00 0.00 0.00 0.00 0.00 0.00 0.00 0.00 0.00 0.00 0.00 0.00 0.00 0.00 0.00 0.00 0.00 0.01 0.04 0.09 0.10 0.06 0.01 0.00 0.12 0.15 0.16 0.14 0.16 0.12 0.11 0.11 0.04 0.05 0.12 0.08 0.02 0.02 0.00 0.00 0.00 0.02 0.02 0.00 0.00
0.00 0.00 0.00 0.00 0.00 0.00 0.00 0.00 0.00 0.00 0.00 0.00 0.00 0.00 0.00 0.00 0.00 0.00 0.00 0.00 0.00 0.00 0.04 0.13 0.18 0.08 0.01 0.00 0.16 0.27 0.12 0.02 0.05 0.00 0.00 0.01 0.00 0.00 0.03 0.01 0.00 0.00 0.00 0.00 0.00 0.00 0.01 0.03 0.02
0.00 0.00 0.00 0.00 0.00 0.00 0.00 0.00 0.00 0.00 0.00 0.00 0.00 0.00 0.00 0.00 0.00 0.01 0.00 0.00 0.00 0.00 0.02 0.10 0.24 0.11 0.03 0.01 0.07 0.17 0.05 0.00 0.00 0.00 0.02 0.06 0.02 0.11 0.10 0.04 0.00 0.00 0.00 0.00 0.00 0.00 0.00 0.00 0.00
0.00 0.00 0.00 0.00 0.00 0.00 0.00 0.00 0.00 0.00 0.00 0.00 0.00 0.00 0.00 0.00 0.00 0.00 0.00 0.00 0.00 0.00 0.00 0.05 0.15 0.07 0.02 0.00 0.00 0.02 0.00 0.00 0.00 0.00 0.05 0.09 0.12 0.16 0.10 0.02 0.00 0.00 0.00 0.00 0.00 0.00 0.00 0.00 0.00
0.00 0.00 0.00 0.00 0.00 0.00 0.00 0.00 0.00 0.00 0.00 0.00 0.00 0.00 0.00 0.00 0.00 0.00 0.00 0.00 0.00 0.00 0.00 0.01 0.10 0.05 0.00 0.00 0.00 0.00 0.00 0.00 0.00 0.00 0.03 0.07 0.06 0.08 0.03 0.00 0.00 0.00 0.00 0.00 0.00 0.00 0.00 0.01 0.00
0.00 0.00 0.00 0.00 0.00 0.00 0.00 0.00 0.00 0.00 0.00 0.00 0.00 0.00 0.00 0.00 0.00 0.00 0.00 0.00 0.00 0.00 0.01 0.01 0.05 0.04 0.00 0.00 0.00 0.00 0.00 0.00 0.00 0.01 0.03 0.01 0.00 0.00 0.00 0.00 0.00 0.00 0.00 0.00 0.00 0.00 0.00 0.03 0.00
0.00 0.00 0.00 0.00 0.00 0.00 0.00 0.00 0.00 0.00 0.00 0.00 0.00 0.00 0.00 0.00 0.00 0.00 0.00 0.00 0.00 0.00 0.00 0.00 0.00 0.00 0.00 0.00 0.00 0.00 0.00 0.00 0.00 0.00 0.00 0.00 0.00 0.00 0.00 0.00 0.00 0.00 0.00 0.00 0.00 0.01 0.02 0.03 0.02
0.00 0.00 0.00 0.00 0.00 0.00 0.00 0.00 0.00 0.00 0.00 0.00 0.00 0.00 0.00 0.00 0.00 0.00 0.00 0.00 0.00 0.01 0.00 0.00 0.00 0.00 0.00 0.00 0.00 0.00 0.00 0.00 0.00 0.00 0.01 0.00 0.00 0.00 0.00 0.00 0.00 0.00 0.00 0.01 0.04 0.04 0.03 0.02 0.04
0.00 0.00 0.00 0.00 0.00 0.00 0.00 0.00 0.00 0.00 0.00 0.00 0.00 0.00 0.00 0.00 0.00 0.00 0.00 0.02 0.01 0.05 0.04 0.00 0.00 0.00 0.00 0.00 0.00 0.00 0.00 0.00 0.00 0.00 0.00 0.00 0.00 0.00 0.00 0.00 0.00 0.00 0.00 0.00 0.01 0.02 0.04 0.05 0.03
0.00 0.00 0.00 0.00 0.00 0.00 0.00 0.00 0.00 0.00 0.00 0.00 0.00 0.00 0.00 0.00 0.00 0.00 0.00 0.02 0.05 0.03 0.01 0.00 0.00 0.00 0.00 0.00 0.00 0.00 0.00 0.00 0.00 0.00 0.00 0.00 0.00 0.00 0.00 0.00 0.00 0.00 0.00 0.00 0.00 0.00 0.01 0.03 0.05
0.00 0.00 0.00 0.00 0.00 0.00 0.00 0.00 0.00 0.00 0.00 0.00 0.00 0.00 0.00 0.00 0.00 0.00 0.00 0.00 0.02 0.01 0.00 0.00 0.00 0.00 0.00 0.00 0.00 0.01 0.00 0.00 0.00 0.00 0.00 0.00 0.00 0.00 0.00 0.00 0.00 0.00 0.00 0.00 0.00 0.00 0.00 0.00 0.00
0.00 0.00 0.00 0.00 0.00 0.00 0.00 0.00 0.00 0.00 0.00 0.00 0.00 0.00 0.00 0.00 0.00 0.00 0.00 0.00 0.04 0.01 0.00 0.00 0.00 0.00 0.00 0.00 0.03 0.08 0.01 0.00 0.00 0.00 0.00 0.00 0.00 0.00 0.00 0.00 0.00 0.00 0.00 0.00 0.00 0.00 0.00 0.00 0.00
0.00 0.00 0.00 0.00 0.00 0.00 0.00 0.00 0.00 0.00 0.00 0.00 0.00 0.00 0.00 0.00 0.00 0.00 0.01 0.03 0.04 0.00 0.00 0.00 0.00 0.00 0.02 0.08 0.19 0.12 0.04 0.00 0.00 0.00 0.00 0.00 0.00 0.00 0.00 0.00 0.00 0.00 0.00 0.00 0.00 0.00 0.00 0.00 0.00
0.00 0.00 0.00 0.00 0.00 0.00 0.00 0.00 0.00 0.00 0.00 0.00 0.00 0.00 0.00 0.00 0.00 0.03 0.09 0.05 0.00 0.00 0.00 0.00 0.00 0.00 0.18 0.32 0.20 0.12 0.02 0.00 0.00 0.00 0.00 0.00 0.00 0.00 0.00 0.00 0.00 0.00 0.00 0.00 0.00 0.00 0.00 0.00 0.00
0.00 0.00 0.00 0.00 0.00 0.00 0.00 0.00 0.00 0.00 0.00 0.00 0.00 0.00 0.00 0.00 0.00 0.06 0.12 0.08 0.00 0.00 0.00 0.00 0.00 0.02 0.23 0.17 0.13 0.03 0.00 0.00 0.00 0.00 0.00 0.00 0.00 0.00 0.00 0.00 0.00 0.00 0.00 0.00 0.00 0.00 0.00 0.00 0.00
MSLP
1010.77 1010.99 1011.08 1010.67 1010.12 1008.77 1008.39 1008.49 1008.35 1008.07 1008.19 1008.85 1009.09 1009.29 1009.91 1010.51 1010.89 1012.08 1012.52 1012.76 1013.15 1013.68 1014.10 1014.57 1014.90 1015.11 1015.46 1015.74 1015.93 1016.03 1016.21 1016.35 1016.47 1016.74 1016.93 1017.13 1017.33 1017.51 1017.73 1017.87 1018.02 1018.05 1018.19 1018.23 1018.40 1018.56 1018.68 1018.79 1018.99
1010.75 1011.18 1010.93 1009.93 1009.04 1008.09 1008.27 1008.42 1008.30 1008.49 1008.87 1009.04 1009.23 1009.61 1010.01 1010.94 1011.75 1012.24 1012.63 1013.13 1013.21 1013.60 1014.04 1014.39 1015.06 1015.34 1015.63 1015.88 1016.07 1016.29 1016.44 1016.65 1016.78 1016.95 1017.09 1017.33 1017.46 1017.54 1017.73 1017.95 1018.16 1018.31 1018.45 1018.45 1018.52 1018.63 1018.77 1018.93 1019.15
1010.77 1010.64 1009.84 1008.93 1008.60 1008.05 1008.14 1008.39 1008.49 1008.76 1008.89 1009.00 1009.43 1009.97 1010.44 1011.56 1012.14 1012.21 1012.69 1013.17 1013.58 1013.90 1014.11 1014.64 1015.26 1015.53 1015.72 1016.12 1016.25 1016.51 1016.72 1016.81 1016.97 1017.14 1017.25 1017.38 1017.53 1017.67 1017.84 1017.99 1018.10 1018.19 1018.39 1018.45 1018.55 1018.61 1018.86 1018.98 1019.14
1010.59 1010.34 1009.61 1008.62 1008.09 1008.16 1008.16 1008.37 1008.60 1008.81 1009.05 1009.41 1009.82 1010.47 1011.54 1012.06 1012.55 1012.77 1013.32 1013.66 1013.94 1014.15 1014.34 1015.07 1015.37 1015.73 1015.88 1016.15 1016.45 1016.60 1016.85 1017.04 1017.17 1017.27 1017.41 1017.56 1017.65 1017.78 1018.00 1017.98 1018.13 1018.24 1018.35 1018.35 1018.63 1018.77 1018.88 1019.03 1019.30
1010.28 1009.25 1008.35 1008.17 1008.01 1007.95 1008.00 1008.40 1008.80 1008.90 1009.35 1009.73 1010.07 1011.02 1011.88 1012.80 1012.89 1013.17 1013.62 1013.91 1014.05 1014.37 1014.60 1015.19 1015.55 1015.80 1015.99 1016.18 1016.43 1016.70 1016.87 1017.09 1017.25 1017.43 1017.48 1017.58 1017.75 1017.93 1017.97 1018.18 1018.31 1018.38 1018.46 1018.45 1018.59 1018.68 1018.90 1019.05 1019.30
1009.07 1008.59 1007.84 1007.80 1007.88 1007.85 1008.02 1008.40 1008.64 1009.07 1009.64 1010.10 1010.45 1011.13 1012.35 1013.21 1013.39 1013.63 1013.94 1014.11 1014.12 1014.56 1014.72 1015.19 1015.82 1015.95 1016.11 1016.27 1016.41 1016.60 1016.85 1017.10 1017.24 1017.37 1017.56 1017.64 1017.82 1017.94 1018.06 1018.17 1018.35 1018.45 1018.50 1018.49 1018.66 1018.76 1018.83 1018.91 1019.34
1008.15 1007.65 1007.60 1007.60 1007.58 1007.57 1007.74 1008.43 1008.60 1009.09 1009.61 1010.07 1010.50 1011.16 1012.62 1013.15 1013.46 1013.81 1014.15 1014.39 1014.58 1014.82 1015.13 1015.51 1015.82 1016.20 1016.42 1016.60 1016.73 1016.78 1016.79 1017.13 1017.31 1017.40 1017.52 1017.71 1017.79 1018.00 1018.09 1018.18 1018.25 1018.41 1018.63 1018.60 1018.59 1018.79 1018.82 1019.00 1019.20
1007.50 1007.24 1007.21 1007.26 1007.06 1007.02 1007.39 1008.03 1008.58 1009.00 1009.59 1010.14 1010.56 1010.94 1011.85 1012.74 1013.49 1013.91 1014.34 1014.69 1014.91 1015.11 1015.29 1015.67 1016.01 1016.21 1016.39 1016.61 1016.93 1017.15 1017.15 1017.11 1017.28 1017.45 1017.69 1017.76 1017.85 1017.92 1018.06 1018.24 1018.35 1018.46 1018.57 1018.69 1018.79 1018.73 1018.81 1018.91 1019.17
1007.44 1006.76 1006.68 1006.61 1006.75 1006.58 1007.27 1007.71 1008.65 1009.10 1009.56 1010.02 1010.60 1011.06 1011.43 1012.71 1013.38 1013.84 1014.37 1014.95 1015.32 1015.51 1015.76 1015.88 1015.98 1016.29 1016.48 1016.77 1016.92 1017.24 1017.35 1017.38 1017.32 1017.45 1017.56 1017.71 1017.43 1017.63 1017.83 1017.97 1018.33 1018.47 1018.59 1018.71 1018.69 1018.71 1018.76 1018.86 1019.00
1006.47 1006.25 1006.49 1006.49 1006.40 1006.28 1006.66 1007.25 1008.22 1008.93 1009.49 1010.13 1010.88 1011.67 1012.23 1013.08 1013.44 1013.60 1014.01 1014.60 1015.32 1015.70 1015.98 1016.21 1016.00 1016.33 1016.54 1016.61 1016.87 1016.95 1017.06 1017.04 1017.17 1017.25 1017.28 1017.26 1017.53 1017.76 1017.80 1018.00 1018.23 1018.32 1018.44 1018.57 1018.70 1018.74 1018.73 1018.80 1018.63
1006.38 1006.05 1006.28 1006.15 1006.33 1006.44 1006.64 1007.32 1007.97 1008.48 1009.23 1009.53 1010.25 1011.53 1012.36 1013.01 1013.49 1013.59 1013.77 1014.22 1014.83 1015.43 1016.00 1016.13 1015.96 1016.18 1016.41 1016.59 1016.84 1016.92 1017.01 1017.13 1017.32 1017.43 1017.44 1017.51 1017.53 1017.75 1017.85 1017.87 1017.93 1017.95 1018.22 1018.25 1018.30 1018.34 1018.30 1018.45 1018.54
1006.13 1006.27 1006.16 1005.91 1006.14 1006.42 1006.75 1007.28 1007.79 1008.19 1008.54 1009.12 1010.12 1011.11 1012.22 1012.83 1013.24 1013.45 1013.85 1014.25 1014.53 1015.01 1015.49 1015.84 1015.80 1016.27 1016.39 1016.75 1017.14 1017.35 1017.35 1017.37 1017.21 1017.28 1017.46 1017.52 1017.42 1017.37 1017.49 1017.66 1017.71 1017.81 1017.87 1018.11 1018.15 1018.00 1018.07 1018.23 1018.48
1005.91 1005.91 1005.94 1005.84 1006.08 1006.35 1006.85 1007.15 1007.65 1008.12 1008.87 1009.40 1010.42 1011.42 1011.95 1012.63 1013.06 1013.42 1013.74 1014.10 1014.52 1014.98 1015.40 1015.40 1015.71 1015.53 1015.95 1016.51 1016.88 1017.53 1017.76 1017.70 1017.38 1017.24 1017.19 1017.20 1017.18 1017.03 1017.09 1017.04 1017.29 1017.51 1017.37 1017.78 1018.09 1018.03 1018.05 1018.16 1018.26
1006.02 1005.83 1005.75 1005.54 1005.79 1006.19 1006.35 1006.99 1007.59 1008.32 1008.93 1009.84 1010.63 1011.20 1011.78 1012.18 1012.57 1013.21 1013.55 1013.79 1014.39 1014.99 1015.19 1015.51 1015.28 1014.69 1015.21 1015.90 1016.63 1017.14 1017.57 1017.33 1017.32 1017.17 1016.90 1016.91 1016.85 1016.91 1016.73 1016.84 1016.98 1017.15 1017.32 1017.37 1017.66 1017.82 1017.98 1017.97 1017.95
1005.92 1005.57 1005.37 1005.37 1005.67 1005.87 1006.34 1006.99 1006.89 1007.79 1008.59 1009.60 1010.40 1011.08 1011.64 1011.93 1012.34 1012.51 1012.86 1013.44 1014.14 1014.74 1014.95 1015.10 1015.06 1014.87 1015.87 1016.13 1016.22 1016.51 1016.93 1017.24 1017.18 1017.23 1016.60 1016.27 1016.34 1016.27 1016.53 1016.41 1016.63 1016.94 1017.02 1017.24 1017.29 1017.48 1017.59 1017.61 1017.66
1005.98 1005.89 1005.49 1005.70 1005.70 1005.98 1005.93 1005.70 1006.15 1007.51 1008.19 1009.25 1010.20 1010.77 1011.37 1011.47 1011.66 1012.00 1012.48 1013.09 1013.82 1014.44 1014.78 1015.08 1015.29 1015.74 1016.34 1016.33 1016.33 1016.67 1016.96 1017.33 1017.35 1017.22 1017.03 1016.76 1016.26 1015.91 1016.13 1016.31 1016.31 1016.46 1016.72 1016.91 1016.86 1017.05 1017.27 1017.50 1017.53
1006.28 1005.96 1005.99 1005.89 1006.11 1006.14 1006.09 1005.60 1006.21 1007.21 1007.91 1008.84 1009.71 1010.19 1010.67 1011.12 1011.51 1011.81 1012.13 1012.54 1013.20 1014.18 1014.76 1015.18 1015.75 1016.31 1016.36 1016.27 1016.51 1016.91 1017.13 1017.20 1017.29 1017.10 1016.64 1016.32 1016.22 1015.99 1015.85 1015.78 1016.05 1016.35 1016.47 1016.65 1016.77 1017.02 1017.10 1017.22 1017.28
1006.29 1006.39 1006.47 1006.37 1006.20 1006.07 1006.09 1006.07 1006.53 1007.24 1007.67 1008.09 1008.88 1009.60 1010.13 1010.66 1010.71 1011.44 1011.89 1012.27 1012.68 1013.71 1014.56 1015.53 1016.17 1016.50 1016.47 1016.36 1016.39 1016.82 1017.03 1016.92 1017.05 1016.67 1016.40 1016.20 1015.84 1015.66 1015.68 1015.72 1015.96 1016.12 1016.24 1016.35 1016.55 1016.83 1017.13 1017.21 1017.46
1006.82 1006.79 1006.75 1006.45 1006.26 1006.17 1005.87 1005.90 1006.15 1006.89 1007.41 1007.74 1008.44 1009.12 1009.53 1009.96 1010.61 1010.97 1011.65 1012.11 1012.57 1013.34 1014.13 1015.12 1016.07 1016.28 1016.28 1016.21 1016.29 1016.35 1016.86 1016.75 1016.49 1016.03 1015.95 1016.05 1015.73 1015.43 1015.69 1015.50 1015.76 1015.88 1016.11 1016.21 1016.43 1016.56 1016.74 1016.79 1017.22
1006.75 1006.74 1006.53 1006.46 1006.35 1005.95 1006.01 1005.83 1006.22 1006.68 1006.89 1007.47 1008.14 1008.72 1009.14 1009.83 1010.25 1010.63 1011.42 1012.02 1012.48 1013.10 1013.81 1014.76 1015.55 1015.95 1016.05 1015.95 1016.05 1016.21 1016.23 1016.28 1015.89 1015.99 1015.75 1015.74 1015.81 1015.74 1015.76 1015.72 1015.75 1015.88 1016.00 1016.22 1016.33 1016.54 1016.50 1016.38 1016.91
1006.69 1006.48 1006.43 1006.49 1006.51 1006.61 1006.43 1005.97 1006.09 1006.46 1007.05 1007.38 1007.54 1007.83 1008.33 1008.89 1009.70 1010.41 1011.15 1011.71 1012.34 1012.97 1013.60 1014.33 1015.07 1015.58 1015.69 1015.79 1016.09 1016.14 1016.11 1015.89 1015.87 1016.03 1016.14 1016.09 1015.95 1015.92 1015.90 1015.78 1015.79 1015.97 1016.13 1016.01 1016.13 1016.19 1016.33 1016.22 1016.63
1006.25 1006.30 1006.51 1006.59 1006.38 1006.60 1006.97 1006.17 1006.28 1006.37 1006.58 1006.85 1006.83 1007.06 1007.37 1008.20 1009.32 1010.05 1010.65 1011.45 1012.18 1012.88 1013.55 1014.17 1014.71 1015.15 1015.48 1015.59 1015.90 1015.73 1015.56 1015.79 1016.18 1016.14 1016.22 1016.18 1016.15 1016.10 1016.13 1016.11 1015.96 1015.91 1015.98 1015.98 1015.81 1015.86 1015.89 1016.05 1016.11
1006.35 1006.49 1006.82 1007.03 1006.99 1007.11 1007.20 1006.77 1006.03 1006.57 1006.37 1006.49 1006.53 1006.71 1006.89 1007.96 1009.07 1009.45 1010.13 1011.29 1011.97 1012.74 1013.18 1013.83 1014.58 1014.78 1015.27 1015.33 1015.59 1015.56 1015.53 1015.56 1015.87 1016.21 1016.41 1016.51 1016.47 1016.39 1016.29 1016.17 1016.09 1016.05 1015.97 1015.75 1015.74 1015.63 1015.65 1015.74 1015.80
1006.59 1006.95 1007.36 1007.67 1007.49 1007.32 1007.79 1007.44 1006.15 1006.25 1006.78 1006.52 1006.64 1006.71 1006.97 1007.73 1008.53 1009.05 1010.08 1011.41 1012.15 1012.56 1013.17 1013.70 1014.40 1014.65 1015.17 1015.47 1015.49 1015.59 1015.56 1015.63 1015.82 1015.89 1016.21 1016.44 1016.51 1016.37 1016.37 1016.26 1016.32 1016.11 1015.96 1015.66 1015.49 1015.35 1015.36 1015.47 1015.64
1006.48 1006.67 1007.11 1007.41 1007.49 1007.63 1008.33 1007.79 1006.27 1006.47 1007.07 1007.15 1006.91 1006.71 1006.90 1007.77 1008.52 1009.15 1010.02 1011.16 1012.04 1012.43 1012.99 1013.72 1014.34 1014.59 1015.00 1015.45 1015.49 1015.64 1015.75 1015.81 1015.92 1016.08 1016.23 1016.35 1016.39 1016.38 1016.55 1016.53 1016.56 1016.49 1016.21 1015.69 1015.45 1015.41 1015.25 1015.32 1015.43
1006.57 1006.76 1007.04 1007.45 1008.00 1007.95 1008.45 1007.26 1006.19 1006.87 1007.11 1007.18 1007.07 1007.09 1007.29 1007.90 1008.68 1009.44 1010.07 1011.06 1011.75 1012.18 1012.77 1013.59 1014.45 1014.67 1015.02 1015.31 1015.83 1016.07 1016.25 1016.13 1016.01 1016.21 1016.27 1016.41 1016.64 1016.74 1016.63 1016.55 1016.52 1016.43 1016.46 1016.12 1015.79 1015.74 1015.57 1015.44 1015.27
1007.06 1007.28 1007.65 1008.03 1009.09 1008.26 1007.76 1007.16 1006.22 1006.70 1006.81 1007.10 1007.29 1007.47 1007.66 1008.09 1009.05 1010.10 1010.90 1011.25 1011.72 1012.27 1012.97 1013.62 1014.23 1014.71 1015.09 1015.51 1015.99 1016.59 1016.61 1016.55 1016.22 1016.35 1016.54 1016.77 1017.05 1016.81 1016.71 1016.67 1016.81 1016.76 1016.79 1016.71 1016.40 1016.30 1016.17 1015.97 1015.65
1006.57 1007.22 1007.71 1007.79 1008.01 1007.80 1007.55 1007.16 1006.43 1006.32 1006.54 1007.35 1007.70 1007.96 1008.41 1008.84 1009.96 1010.64 1011.27 1011.76 1012.05 1012.43 1013.23 1013.71 1014.41 1014.84 1015.12 1015.53 1016.31 1016.38 1016.79 1016.78 1016.73 1016.42 1016.60 1016.87 1017.13 1017.19 1017.08 1017.01 1017.00 1017.05 1017.23 1017.02 1016.87 1016.77 1016.63 1016.30 1016.16
1007.07 1007.08 1007.66 1007.74 1008.07 1007.47 1007.23 1006.56 1006.34 1006.50 1007.02 1007.84 1008.42 1008.72 1009.13 1009.87 1010.25 1010.57 1011.09 1011.41 1011.78 1012.35 1013.05 1013.64 1014.28 1014.84 1015.21 1015.69 1015.97 1016.23 1016.50 1016.57 1016.74 1016.60 1016.55 1016.90 1017.35 1017.61 1017.52 1017.36 1017.34 1017.47 1017.81 1017.54 1017.21 1017.21 1016.92 1016.70 1016.55
1006.33 1006.47 1006.86 1007.06 1008.26 1008.20 1007.53 1006.55 1006.63 1006.92 1007.68 1008.55 1008.94 1009.34 1009.83 1010.39 1010.45 1010.97 1011.41 1011.70 1012.00 1012.32 1013.17 1013.85 1014.35 1014.95 1015.59 1015.90 1016.05 1016.24 1016.59 1016.80 1016.77 1016.79 1016.81 1017.19 1017.66 1017.91 1017.71 1017.71 1017.81 1018.02 1018.19 1017.85 1017.64 1017.54 1017.33 1017.20 1017.05
Thickness
5830 5827 5825 5819 5800 5803 5783 5785 5803 5799 5801 5808 5809 5800 5791 5788 5779 5761 5789 5790 5787 5782 5777 5775 5773 5771 5768 5766 5764 5763 5761 5760 5759 5757 5756 5754 5753 5753 5752 5752 5751 5751 5751 5748 5750 5749 5749 5749 5748
5833 5828 5822 5814 5798 5784 5780 5797 5791 5799 5805 5812 5808 5800 5791 5775 5783 5781 5783 5787 5785 5782 5779 5776 5772 5769 5766 5764 5763 5761 5760 5758 5757 5756 5755 5753 5753 5752 5751 5750 5750 5749 5748 5748 5747 5750 5749 5747 5747
5836 5834 5820 5813 5796 5782 5781 5797 5800 5805 5812 5807 5800 5803 5792 5776 5781 5786 5790 5788 5783 5780 5779 5775 5770 5767 5766 5763 5762 5759 5757 5757 5757 5755 5754 5754 5753 5752 5752 5751 5750 5750 5748 5745 5747 5750 5749 5748 5747
5832 5827 5823 5808 5793 5799 5799 5805 5808 5804 5811 5811 5804 5786 5791 5792 5784 5788 5788 5785 5782 5779 5777 5772 5769 5765 5764 5762 5760 5759 5757 5755 5754 5754 5753 5753 5752 5752 5750 5751 5750 5749 5748 5748 5746 5746 5749 5749 5748
5835 5829 5814 5801 5798 5806 5814 5815 5812 5804 5803 5803 5804 5783 5782 5788 5793 5791 5786 5785 5780 5777 5775 5771 5769 5765 5765 5763 5760 5758 5756 5754 5753 5752 5752 5752 5751 5750 5750 5749 5748 5748 5747 5747 5746 5747 5746 5746 5748
5828 5830 5809 5793 5798 5809 5816 5820 5817 5808 5805 5803 5798 5790 5783 5790 5788 5788 5786 5783 5781 5777 5775 5771 5767 5765 5764 5762 5760 5759 5756 5754 5753 5752 5751 5751 5750 5749 5748 5749 5749 5749 5747 5747 5746 5745 5745 5745 5745
5830 5825 5807 5804 5802 5807 5815 5824 5814 5808 5804 5801 5809 5788 5786 5788 5792 5790 5786 5783 5780 5776 5773 5769 5765 5761 5760 5759 5756 5754 5754 5752 5751 5751 5752 5750 5749 5748 5747 5747 5748 5747 5746 5746 5746 5745 5745 5744 5745
5842 5833 5811 5810 5806 5809 5827 5824 5825 5815 5805 5821 5817 5792 5787 5794 5795 5793 5787 5783 5780 5777 5773 5767 5763 5760 5758 5756 5754 5752 5751 5750 5750 5750 5749 5748 5748 5748 5747 5746 5746 5745 5745 5745 5744 5745 5745 5744 5744
5848 5825 5810 5815 5811 5822 5833 5822 5826 5829 5815 5818 5816 5810 5811 5803 5799 5792 5786 5780 5776 5774 5771 5767 5763 5759 5756 5752 5751 5749 5748 5748 5748 5747 5748 5748 5750 5749 5748 5747 5745 5744 5744 5744 5745 5744 5745 5745 5744
5839 5828 5820 5835 5836 5833 5836 5833 5825 5818 5814 5809 5809 5811 5810 5802 5796 5791 5786 5779 5772 5768 5767 5764 5761 5756 5753 5751 5749 5748 5747 5747 5747 5747 5747 5748 5747 5746 5746 5746 5745 5744 5744 5743 5742 5743 5744 5745 5746
5837 5829 5838 5842 5843 5844 5838 5832 5836 5823 5808 5819 5813 5807 5806 5799 5793 5791 5790 5784 5777 5773 5768 5765 5764 5758 5752 5747 5744 5743 5743 5743 5743 5744 5744 5743 5744 5744 5744 5744 5745 5745 5743 5743 5743 5744 5745 5745 5746
5832 5841 5844 5848 5849 5843 5834 5840 5829 5832 5830 5837 5828 5819 5808 5799 5795 5792 5787 5783 5782 5777 5772 5767 5764 5758 5754 5749 5741 5735 5735 5736 5738 5741 5740 5740 5741 5743 5744 5745 5745 5746 5746 5743 5743 5744 5745 5746 5745
5837 5843 5848 5853 5849 5846 5844 5835 5832 5831 5837 5838 5828 5817 5810 5803 5799 5797 5793 5789 5784 5776 5771 5769 5763 5760 5755 5748 5741 5732 5727 5730 5734 5736 5739 5740 5742 5744 5744 5746 5745 5745 5747 5745 5742 5742 5744 5744 5744
5842 5843 5845 5853 5849 5848 5841 5836 5837 5834 5838 5828 5823 5817 5813 5808 5805 5798 5793 5789 5783 5777 5772 5766 5766 5769 5761 5751 5738 5734 5729 5729 5732 5736 5740 5741 5743 5743 5745 5746 5746 5745 5745 5744 5743 5742 5742 5743 5744
5843 5837 5846 5849 5849 5845 5848 5825 5832 5841 5840 5827 5822 5818 5814 5811 5810 5803 5801 5793 5786 5778 5774 5767 5766 5763 5753 5746 5741 5737 5731 5729 5731 5733 5741 5744 5744 5746 5745 5746 5747 5745 5744 5743 5744 5743 5742 5743 5743
5829 5831 5819 5839 5846 5847 5848 5824 5847 5845 5839 5828 5823 5818 5813 5814 5814 5811 5806 5799 5791 5781 5773 5769 5763 5756 5746 5741 5737 5731 5728 5727 5729 5731 5737 5738 5742 5746 5745 5745 5746 5745 5743 5744 5744 5745 5743 5742 5742
5818 5805 5810 5822 5839 5838 5837 5831 5845 5848 5840 5830 5825 5822 5818 5814 5813 5811 5809 5804 5796 5781 5773 5763 5757 5750 5744 5739 5733 5725 5725 5725 5726 5730 5735 5739 5741 5744 5746 5746 5744 5742 5742 5742 5741 5739 5739 5737 5738
5800 5802 5806 5804 5829 5834 5828 5828 5837 5841 5840 5837 5832 5825 5819 5814 5817 5814 5809 5805 5799 5786 5773 5763 5753 5746 5742 5737 5733 5723 5723 5723 5725 5730 5735 5739 5743 5745 5747 5747 5744 5742 5741 5740 5739 5737 5735 5733 5732
5807 5802 5798 5813 5829 5826 5827 5829 5839 5839 5838 5836 5832 5826 5821 5818 5819 5819 5811 5804 5797 5787 5776 5763 5752 5747 5741 5736 5729 5722 5718 5723 5727 5734 5737 5738 5742 5745 5744 5746 5743 5741 5740 5739 5737 5736 5733 5733 5731
5806 5800 5804 5816 5825 5830 5824 5827 5832 5835 5838 5838 5832 5827 5823 5818 5816 5816 5808 5803 5796 5787 5778 5767 5758 5751 5743 5740 5734 5727 5725 5726 5733 5736 5740 5740 5739 5742 5740 5741 5740 5739 5737 5735 5734 5731 5730 5733 5730
5804 5804 5805 5807 5816 5819 5817 5817 5824 5833 5833 5835 5837 5837 5831 5825 5818 5813 5807 5802 5796 5787 5778 5770 5761 5754 5747 5742 5736 5732 5731 5734 5736 5736 5734 5733 5736 5737 5737 5738 5738 5736 5733 5734 5733 5732 5729 5728 5727
5799 5817 5814 5809 5811 5795 5807 5791 5810 5822 5825 5829 5833 5836 5837 5830 5822 5816 5810 5800 5793 5787 5779 5772 5766 5758 5750 5746 5738 5738 5737 5731 5731 5733 5733 5732 5732 5733 5733 5733 5733 5733 5733 5732 5733 5733 5732 5729 5725
5806 5817 5810 5802 5800 5797 5795 5793 5814 5813 5818 5825 5832 5835 5840 5833 5822 5819 5813 5802 5794 5786 5779 5772 5765 5761 5753 5750 5745 5741 5740 5739 5737 5734 5731 5728 5728 5728 5728 5729 5730 5731 5731 5733 5732 5732 5731 5729 5726
5809 5803 5795 5789 5792 5778 5775 5780 5800 5810 5812 5823 5831 5834 5835 5831 5825 5821 5814 5798 5788 5784 5776 5770 5763 5760 5753 5747 5747 5743 5740 5737 5734 5733 5730 5728 5727 5727 5726 5727 5727 5729 5730 5732 5733 5732 5730 5727 5723
5805 5798 5770 5764 5767 5766 5770 5773 5801 5816 5816 5817 5822 5831 5834 5829 5822 5814 5806 5796 5786 5780 5776 5770 5761 5756 5752 5745 5742 5741 5739 5736 5733 5731 5729 5726 5725 5725 5725 5725 5725 5726 5727 5728 5729 5729 5728 5725 5722
5795 5795 5772 5739 5747 5764 5766 5774 5804 5813 5818 5822 5826 5829 5831 5823 5818 5809 5806 5797 5788 5783 5776 5767 5757 5750 5747 5742 5735 5731 5731 5731 5730 5729 5729 5726 5723 5722 5723 5725 5723 5724 5722 5723 5723 5723 5724 5725 5725
5782 5781 5787 5757 5740 5758 5770 5787 5814 5812 5817 5819 5820 5822 5821 5819 5811 5801 5795 5791 5784 5777 5770 5763 5755 5747 5741 5735 5727 5719 5719 5722 5727 5725 5725 5722 5720 5722 5723 5722 5721 5720 5719 5717 5718 5718 5720 5720 5721
5796 5792 5772 5769 5741 5740 5761 5763 5783 5806 5816 5812 5812 5812 5811 5809 5800 5793 5787 5781 5778 5774 5766 5760 5752 5742 5735 5727 5715 5712 5712 5715 5720 5724 5723 5721 5720 5718 5719 5719 5720 5718 5716 5716 5716 5717 5717 5718 5719
5777 5780 5769 5777 5760 5757 5750 5771 5806 5807 5813 5805 5803 5804 5802 5796 5794 5792 5787 5785 5780 5773 5766 5758 5750 5738 5729 5716 5705 5708 5708 5715 5719 5723 5723 5721 5717 5714 5714 5715 5716 5714 5710 5714 5716 5715 5717 5718 5718
5791 5786 5785 5772 5744 5746 5761 5777 5802 5806 5803 5799 5798 5797 5794 5791 5792 5786 5783 5778 5773 5769 5760 5753 5745 5736 5721 5706 5705 5708 5709 5713 5717 5719 5721 5718 5713 5710 5711 5711 5710 5708 5706 5711 5713 5712 5715 5714 5715